Regional Weather Roundup
Issued by NWS Sterling, VA

Home | Current Version | Previous Version | Text Only | Print | Product List | Glossary Off
Versions: 1 2 3 4 5 6 7 8 9 10 11 12 13 14 15 16 17 18 19 20 21 22 23 24 25 26 27 28 29 30 31 32 33 34 35 36 37 38 39 40 41 42 43 44 45 46 47 48 49 50

000
ASUS41 KLWX 292310
RWRLWX

REGIONAL WEATHER ROUNDUP
NATIONAL WEATHER SERVICE BALTIMORE MD/WASHINGTON DC
700 PM EDT WED JUL 29 2015

Note: "FAIR" indicates few or no clouds below 12,000 feet
with no significant weather and/or obstructions to visibility.
 TC=TEMPERATURE CELSIUS

 * =Non NWS site. Station does not report precipitation (e.g. rain,
    snow, etc.), thunder, or fog.

DCZ001-MDZ009-015-VAZ040>042-051-053>054-300000-
WASHINGTON METRO

CITY           SKY/WX    TMP DP  RH WIND       PRES   REMARKS
WASHINGTON NAT PTSUNNY   89  72  56 S14G21    29.93S HX  96
DULLES         MOSUNNY   84  73  69 S9        29.94R HX  90
ANDREWS AFB    MOSUNNY   86  73  64 SW8       29.94R HX  92
FT BELVOIR     SUNNY     85  73  67 VRB6      29.93F HX  92
QUANTICO       MOSUNNY   86  70  58 SW14      29.94S HX  90
COLLEGE PARK*  MOSUNNY   88  72  58 S7        29.93S HX  94
LEESBURG*      SUNNY     88  77  70 S12G18    29.95R HX 100
MANASSAS*      SUNNY     84  73  70 S8        29.93F HX  91
GAITHERSBURG*  PTSUNNY   84  73  70 SE8       29.98R HX  91

$$

MDZ006>007-011-014-300000-
BALTIMORE METRO

CITY           SKY/WX    TMP DP  RH WIND       PRES   REMARKS
BWI AIRPORT    PTSUNNY   80  75  84 CALM      29.93F
MD SCIENCE CTR   N/A     78  75  90 MISG      29.94S
MARTIN STATE   PTSUNNY   84  79  84 SE3       29.95S HX  96
ANNAPOLIS      MOSUNNY   84  73  69 S8        29.93S HX  90
FORT MEADE*    MOSUNNY   81  75  83 NE3       29.96R

$$

MDZ012-015-019>023-300000-
MARYLAND EASTERN SHORE

CITY           SKY/WX    TMP DP  RH WIND       PRES   REMARKS
OCEAN CITY     MOSUNNY   81  73  76 S8        29.96F
SALISBURY      MOSUNNY   84  73  69 S7        29.95F HX  90
BAY BRIDGE AP*   N/A     84  72  65 S10       29.94S
CAMBRIDGE*     MOSUNNY   86  70  58 S5        29.94S HX  90
EASTON*        MOSUNNY   86  75  70 SW12      29.98F HX  95

$$

MDZ017>025-300000-
SOUTHERN MARYLAND

CITY           SKY/WX    TMP DP  RH WIND       PRES   REMARKS
PATUXENT RIVER MOSUNNY   82  74  76 SE8       29.94F
ST INIGOES     SUNNY     84  75  74 S5        29.94F HX  92
LEONARDTOWN*   SUNNY     82  72  69 S3        29.96S

$$

MDZ003>005-300000-
NORTH CENTRAL MARYLAND

CITY           SKY/WX    TMP DP  RH WIND       PRES   REMARKS
FREDERICK*     PTSUNNY   84  77  79 VRB5      29.96R HX  94
HAGERSTOWN APT MOSUNNY   88  71  57 S8        29.93S HX  94
WESTMINSTER*   MOSUNNY   84  75  74 S10       29.97R HX  92

$$

MDZ501>502-300000-
WESTERN MARYLAND

CITY           SKY/WX    TMP DP  RH WIND       PRES   REMARKS
OAKLAND*       PTSUNNY   75 N/A N/A SE5       30.07R
CUMBERLAND*    MOSUNNY   88  72  58 SE3       29.97R HX  94

$$

VAZ025>031-300000-
SHENANDOAH VALLEY

CITY           SKY/WX    TMP DP  RH WIND       PRES   REMARKS
WINCHESTER*    MOSUNNY   86  73  66 S7        29.94S HX  93
FRONT ROYAL*   FAIR      82  73  74 CALM      29.93R
LURAY*         FAIR      90  73  58 SW9       29.95R HX  98
NEW MARKET*    FAIR      85  75  71 CALM      29.93R HX  94
STAUNTON*      MOSUNNY   86  72  61 S5        29.98S HX  92
WAYNESBORO*    FAIR      80  74  81 S3        29.99S

$$

WVZ021-048>050-054>055-300000-
EASTERN WEST VIRGINIA PANHANDLE

CITY           SKY/WX    TMP DP  RH WIND       PRES   REMARKS
MARTINSBURG    SUNNY     85  73  67 SE7       29.93S HX  91
PETERSBURG*    PTSUNNY  N/A N/A N/A CALM      29.95F

$$

VAZ036>039-050-300000-
CENTRAL FOOTHILLS

CITY           SKY/WX    TMP DP  RH WIND       PRES   REMARKS
CHARLOTTESVILL MOSUNNY   84  74  71 S7        29.94S HX  91
CULPEPER*      SUNNY     83  75  75 SE3       29.93F HX  90
ORANGE*        MOSUNNY   86  75  70 SE5       29.95S HX  95
GORDONSVILLE*  FAIR      82  75  78 S5        29.94S
WARRENTON*     FAIR      84  76  77 SE5       29.93S HX  93

$$

VAZ055>057-300000-
NORTH AND CENTRAL PIEDMONT

CITY           SKY/WX    TMP DP  RH WIND       PRES   REMARKS
FREDERICKSBRG* SUNNY     87  74  64 S8        29.93S HX  95
STAFFORD*      SUNNY     84  70  63 S9        29.98R

$$

NCZ024-NYZ072-PAZ021-071-VAZ022-071-300000-
OTHER REGIONAL OBSERVATIONS

CITY           SKY/WX    TMP DP  RH WIND       PRES   REMARKS
NEW YORK CITY  SUNNY     88  68  51 MISG      29.93F HX  91
PHILADELPHIA   MOSUNNY   89  71  55 S16       29.93F HX  95
PITTSBURGH     MOSUNNY   89  68  49 W7        29.94R HX  93
ROANOKE        PTSUNNY   84  73  69 SE7       29.99S HX  90
RICHMOND       MOSUNNY   86  73  65 SE5       29.95S HX  93
RALEIGH        MOSUNNY   89  69  51 SE8       29.94F HX  93

$$

ANZ530>537-300000-
MARINE OBSERVATIONS

STATION/POSITION TIME  TEMP    WIND        PRES
                       AIR SEA DIR/SP/G
                 (UTC) (F)     (DEG/KT/KT) (MB)
THOMAS PT LIGHT  NOT AVBL
BALT KEY BRIDGE  2200   83                   N/A
COVE POINT       2200   81                   N/A
LEWISETTA        2200   84 84                N/A
SOLOMONS ISLAND  2200      82                N/A

$$



USA.gov is the U.S. government's official web portal to all federal, state and local government web resources and services.